This is the latest recevied weather packets stored in our database for station/object KE8WAY. If no packets are shown the sender has not sent any weather packets the latest 10 day(s).
| Time | Temp. | Humidity | Pressure | Rain* | Wind** | Luminosity | Snow |
|---|---|---|---|---|---|---|---|
| 1778107457 | 12.78° C | 44% | 1011.9 hPa | 0 mm | - | 97 W/m² | - |
| 1778107154 | 12.78° C | 40% | 1011.8 hPa | 0 mm | - | 102 W/m² | - |
| 1778106849 | 12.78° C | 38% | 1011.9 hPa | 0 mm | - | 124 W/m² | - |
| 1778106546 | 12.78° C | 35% | 1011.7 hPa | 0 mm | - | 120 W/m² | - |
| 1778106243 | 12.78° C | 37% | 1011.8 hPa | 0 mm | - | 134 W/m² | - |
| 1778105940 | 12.78° C | 37% | 1011.8 hPa | 0 mm | - | 136 W/m² | - |
| 1778105637 | 12.78° C | 35% | 1011.9 hPa | 0 mm | - | 135 W/m² | - |
| 1778105334 | 12.78° C | 36% | 1011.9 hPa | 0 mm | - | 147 W/m² | - |
| 1778105030 | 12.78° C | 37% | 1012.1 hPa | 0 mm | - | 152 W/m² | - |
| 1778104727 | 12.78° C | 38% | 1012 hPa | 0 mm | - | 175 W/m² | - |
| 1778104422 | 12.78° C | 35% | 1012 hPa | 0 mm | - | 165 W/m² | - |
| 1778104118 | 13.33° C | 37% | 1012.2 hPa | 0 mm | - | 179 W/m² | - |
| 1778103815 | 12.78° C | 33% | 1011.8 hPa | 0 mm | - | 169 W/m² | - |
| 1778103514 | 12.78° C | 35% | 1012.1 hPa | 0 mm | - | 180 W/m² | - |
| 1778103211 | 12.78° C | 37% | 1012.2 hPa | 0 mm | - | 282 W/m² | - |
| 1778102908 | 12.78° C | 38% | 1011.8 hPa | 0 mm | - | 252 W/m² | - |
| 1778102603 | 12.78° C | 35% | 1011.8 hPa | 0 mm | - | 195 W/m² | - |
| 1778102299 | 12.78° C | 34% | 1011.8 hPa | 0 mm | - | 189 W/m² | - |
| 1778101995 | 12.78° C | 36% | 1011.6 hPa | 0 mm | - | 196 W/m² | - |
| 1778101693 | 12.78° C | 38% | 1011.9 hPa | 0 mm | - | 195 W/m² | - |
| 1778101389 | 12.78° C | 38% | 1011.5 hPa | 0 mm | - | 189 W/m² | - |
| 1778101086 | 12.78° C | 38% | 1011.5 hPa | 0 mm | - | 189 W/m² | - |
| 1778100782 | 12.22° C | 38% | 1011.8 hPa | 0 mm | - | 211 W/m² | - |
| 1778100479 | 12.22° C | 36% | 1011.7 hPa | 0 mm | - | 219 W/m² | - |
| 1778100177 | 12.78° C | 35% | 1011.9 hPa | 0 mm | - | 211 W/m² | - |
* Rain latest hour (hover to see other rain measurements)
** Current wind speed in m/s (hover to see current wind gust speed)